{"data":{"norad_id":62700,"epoch":"2026-05-25T04:55:38.924832Z","epoch_age_seconds":57264,"freshness":"FRESH","line1":"1 62700U 25009CV  26145.20531163  .00002656  00000+0  23835-3 0  9992","line2":"2 62700  97.7065 225.0689 0002811 100.3700 259.7838 14.96576204 73978","mean_motion":14.96576204,"eccentricity":0.0002811,"inclination_deg":97.7065,"raan_deg":225.0689,"arg_perigee_deg":100.37,"mean_anomaly_deg":259.7838,"bstar":0.00023835,"rev_number":7397,"period_min":96.21962424307,"perigee_km":575.52943081046,"apogee_km":579.4398813055,"semimajor_km":6955.621656058,"source":"CELESTRAK","updated_at":"2026-05-25T13:38:03.202570Z"}}